Simultaneous Nadir Overpasses (SNOs) Predictions

Prediction of SNOs between GOES-17 and AQUA Satellite Orbit:

Table of predicted SNOs for the next 14.0 days since TLE Epoch: 5/21/2022
Index Date Time (GOES-17) GOES-17 Lat,Lon AQUA Lat,Lon Distance(km) Time Diff (sec)
1 05/22/2022 22:32:01 0.01,-137.16 0.68,-133.90 371.19 80
2 05/23/2022 10:55:52 -0.00,-137.16 0.39,-139.03 212.57 80
3 05/25/2022 10:40:41 -0.00,-137.15 -0.23,-135.99 131.71 80
4 05/25/2022 23:04:40 -0.00,-137.14 -0.87,-141.15 456.77 80
5 05/27/2022 10:28:10 -0.01,-137.13 -0.88,-132.94 475.75 80
6 05/27/2022 22:49:29 0.00,-137.12 -0.21,-138.11 112.78 80
7 05/29/2022 22:39:37 0.01,-137.09 0.42,-135.06 230.75 80
8 05/30/2022 11:00:48 -0.00,-137.09 0.63,-140.20 353.27 80
9 06/01/2022 10:48:15 -0.01,-137.05 0.02,-137.14 10.47 80
10 06/03/2022 10:33:02 -0.00,-137.01 -0.62,-134.09 332.17 80
11 06/03/2022 22:54:19 0.00,-136.99 -0.50,-139.25 256.86 80
